Time,TemperatureF,DewpointF,PressureIn,WindDirection,WindDirectionDegrees,WindSpeedMPH,WindSpeedGustMPH,Humidity,HourlyPrecipIn,Conditions,Clouds,dailyrainin,SoftwareType,DateUTC
2013-01-16 00:23:00,24.7,22.0,30.13,East,89,0.0,1.0,89,0.00,,,0.00,weatherlink.com 1.10,2013-01-16 05:23:00,
2013-01-16 00:35:00,23.9,21.0,30.11,East,89,0.0,0.0,90,0.00,,,0.00,weatherlink.com 1.10,2013-01-16 05:35:00,
2013-01-16 00:53:00,23.6,21.0,30.10,East,89,0.0,0.0,91,0.00,,,0.00,weatherlink.com 1.10,2013-01-16 05:53:00,
2013-01-16 01:05:00,23.1,21.0,30.10,East,89,0.0,0.0,91,0.00,,,0.00,weatherlink.com 1.10,2013-01-16 06:05:00,
2013-01-16 01:20:00,22.8,21.0,30.11,East,89,0.0,0.0,92,0.00,,,0.00,weatherlink.com 1.10,2013-01-16 06:20:00,
2013-01-16 01:35:00,22.6,21.0,30.11,East,88,0.0,0.0,93,0.00,,,0.00,weatherlink.com 1.10,2013-01-16 06:35:00,
2013-01-16 01:50:00,22.4,21.0,30.11,East,88,0.0,0.0,93,0.00,,,0.00,weatherlink.com 1.10,2013-01-16 06:50:00,
2013-01-16 02:05:00,22.0,20.0,30.11,East,88,0.0,0.0,93,0.00,,,0.00,weatherlink.com 1.10,2013-01-16 07:05:00,
2013-01-16 02:20:00,21.2,20.0,30.11,East,88,0.0,0.0,93,0.00,,,0.00,weatherlink.com 1.10,2013-01-16 07:20:00,
2013-01-16 02:35:00,21.4,20.0,30.08,East,88,0.0,0.0,94,0.00,,,0.00,weatherlink.com 1.10,2013-01-16 07:35:00,
2013-01-16 02:50:00,21.6,20.0,30.09,East,88,0.0,0.0,94,0.00,,,0.00,weatherlink.com 1.10,2013-01-16 07:50:00,
2013-01-16 03:05:00,21.8,20.0,30.09,East,88,0.0,0.0,94,0.00,,,0.00,weatherlink.com 1.10,2013-01-16 08:05:00,
2013-01-16 03:20:00,22.6,21.0,30.10,East,87,0.0,0.0,95,0.00,,,0.00,weatherlink.com 1.10,2013-01-16 08:20:00,
2013-01-16 03:35:00,23.3,22.0,30.09,East,88,0.0,1.0,95,0.00,,,0.00,weatherlink.com 1.10,2013-01-16 08:35:00,
2013-01-16 03:51:00,23.6,22.0,30.09,East,89,0.0,1.0,94,0.00,,,0.00,weatherlink.com 1.10,2013-01-16 08:51:00,
2013-01-16 04:06:00,23.7,22.0,30.08,East,89,0.0,1.0,94,0.00,,,0.00,weatherlink.com 1.10,2013-01-16 09:06:00,
2013-01-16 04:21:00,23.8,22.0,30.08,East,90,0.0,2.0,94,0.00,,,0.00,weatherlink.com 1.10,2013-01-16 09:21:00,
2013-01-16 04:36:00,23.7,22.0,30.08,East,92,0.0,1.0,94,0.00,,,0.00,weatherlink.com 1.10,2013-01-16 09:36:00,
2013-01-16 04:51:00,23.6,22.0,30.07,East,96,0.0,2.0,94,0.00,,,0.00,weatherlink.com 1.10,2013-01-16 09:51:00,
2013-01-16 05:06:00,23.5,22.0,30.06,East,94,0.0,1.0,94,0.00,,,0.00,weatherlink.com 1.10,2013-01-16 10:06:00,
2013-01-16 05:21:00,23.4,22.0,30.05,East,94,0.0,1.0,94,0.00,,,0.00,weatherlink.com 1.10,2013-01-16 10:21:00,
2013-01-16 05:36:00,23.5,22.0,30.05,East,101,0.0,2.0,94,0.00,,,0.00,weatherlink.com 1.10,2013-01-16 10:36:00,
2013-01-16 05:51:00,23.8,22.0,30.06,East,91,0.0,2.0,94,0.00,,,0.00,weatherlink.com 1.10,2013-01-16 10:51:00,
2013-01-16 06:06:00,24.0,22.0,30.05,East,89,0.0,0.0,93,0.00,,,0.00,weatherlink.com 1.10,2013-01-16 11:06:00,
2013-01-16 06:21:00,24.1,22.0,30.06,East,89,0.0,0.0,93,0.00,,,0.00,weatherlink.com 1.10,2013-01-16 11:21:00,
2013-01-16 06:36:00,24.2,23.0,30.05,East,89,0.0,1.0,93,0.00,,,0.00,weatherlink.com 1.10,2013-01-16 11:36:00,
2013-01-16 06:51:00,24.3,23.0,30.05,East,89,0.0,1.0,93,0.00,,,0.00,weatherlink.com 1.10,2013-01-16 11:51:00,
2013-01-16 07:06:00,24.4,23.0,30.05,East,89,0.0,0.0,93,0.00,,,0.00,weatherlink.com 1.10,2013-01-16 12:06:00,
2013-01-16 07:21:00,24.4,23.0,30.05,ENE,73,0.0,1.0,93,0.00,,,0.00,weatherlink.com 1.10,2013-01-16 12:21:00,
2013-01-16 07:36:00,24.6,23.0,30.05,ENE,73,0.0,0.0,93,0.00,,,0.00,weatherlink.com 1.10,2013-01-16 12:36:00,
2013-01-16 07:51:00,24.2,23.0,30.04,ENE,75,0.0,0.0,93,0.00,,,0.00,weatherlink.com 1.10,2013-01-16 12:51:00,
2013-01-16 08:06:00,23.6,22.0,30.05,ENE,75,0.0,0.0,93,0.00,,,0.00,weatherlink.com 1.10,2013-01-16 13:06:00,
2013-01-16 08:21:00,23.6,22.0,30.04,ENE,75,0.0,0.0,94,0.00,,,0.00,weatherlink.com 1.10,2013-01-16 13:21:00,
2013-01-16 08:36:00,23.6,22.0,30.06,ENE,74,0.0,1.0,94,0.00,,,0.00,weatherlink.com 1.10,2013-01-16 13:36:00,
2013-01-16 08:51:00,23.5,22.0,30.06,ENE,77,0.0,1.0,94,0.00,,,0.00,weatherlink.com 1.10,2013-01-16 13:51:00,
2013-01-16 09:06:00,23.6,22.0,30.07,East,85,0.0,1.0,94,0.00,,,0.00,weatherlink.com 1.10,2013-01-16 14:06:00,
2013-01-16 09:21:00,24.8,23.0,30.08,ENE,63,0.0,2.0,94,0.00,,,0.00,weatherlink.com 1.10,2013-01-16 14:21:00,
2013-01-16 09:36:00,25.0,23.0,30.08,East,84,0.0,2.0,93,0.00,,,0.00,weatherlink.com 1.10,2013-01-16 14:36:00,
2013-01-16 10:06:00,26.7,25.0,30.07,East,81,0.0,2.0,91,0.00,,,0.00,weatherlink.com 1.10,2013-01-16 15:06:00,
2013-01-16 10:21:00,27.6,25.0,30.07,East,96,0.0,6.0,89,0.00,,,0.00,weatherlink.com 1.10,2013-01-16 15:21:00,
2013-01-16 10:36:00,28.5,25.0,30.08,East,101,2.0,6.0,86,0.00,,,0.00,weatherlink.com 1.10,2013-01-16 15:36:00,
2013-01-16 10:51:00,29.1,25.0,30.07,East,84,2.0,6.0,83,0.00,,,0.00,weatherlink.com 1.10,2013-01-16 15:51:00,
2013-01-16 11:06:00,29.7,25.0,30.06,NE,41,0.0,6.0,82,0.00,,,0.00,weatherlink.com 1.10,2013-01-16 16:06:00,
2013-01-16 11:21:00,30.5,25.0,30.07,ESE,103,3.0,5.0,79,0.00,,,0.00,weatherlink.com 1.10,2013-01-16 16:21:00,
2013-01-16 11:36:00,30.6,25.0,30.06,ENE,64,1.0,6.0,79,0.00,,,0.00,weatherlink.com 1.10,2013-01-16 16:36:00,
2013-01-16 11:51:00,31.4,26.0,30.04,ESE,114,2.0,6.0,79,0.00,,,0.00,weatherlink.com 1.10,2013-01-16 16:51:00,
2013-01-16 12:06:00,31.8,24.0,30.03,ESE,115,3.0,6.0,74,0.00,,,0.00,weatherlink.com 1.10,2013-01-16 17:06:00,
2013-01-16 12:21:00,32.3,25.0,30.03,ENE,68,0.0,5.0,73,0.00,,,0.00,weatherlink.com 1.10,2013-01-16 17:21:00,
2013-01-16 12:37:00,32.7,23.0,30.02,East,94,2.0,6.0,68,0.00,,,0.00,weatherlink.com 1.10,2013-01-16 17:37:00,
2013-01-16 12:52:00,33.3,24.0,30.02,East,84,1.0,5.0,68,0.00,,,0.00,weatherlink.com 1.10,2013-01-16 17:52:00,
2013-01-16 13:07:00,33.6,24.0,30.01,NE,43,3.0,6.0,69,0.00,,,0.00,weatherlink.com 1.10,2013-01-16 18:07:00,
2013-01-16 13:22:00,34.0,25.0,30.00,ENE,60,3.0,4.0,69,0.00,,,0.00,weatherlink.com 1.10,2013-01-16 18:22:00,
2013-01-16 13:37:00,33.5,24.0,29.99,East,81,2.0,7.0,68,0.00,,,0.00,weatherlink.com 1.10,2013-01-16 18:37:00,
2013-01-16 13:52:00,33.6,24.0,29.98,ENE,75,2.0,5.0,69,0.00,,,0.00,weatherlink.com 1.10,2013-01-16 18:52:00,
2013-01-16 14:07:00,33.9,24.0,29.98,East,81,1.0,7.0,68,0.00,,,0.00,weatherlink.com 1.10,2013-01-16 19:07:00,
2013-01-16 14:22:00,34.1,25.0,29.98,ENE,70,2.0,5.0,68,0.00,,,0.00,weatherlink.com 1.10,2013-01-16 19:22:00,
2013-01-16 14:37:00,34.0,25.0,29.98,NE,54,2.0,5.0,69,0.00,,,0.00,weatherlink.com 1.10,2013-01-16 19:37:00,
2013-01-16 14:52:00,34.5,24.0,29.98,NNE,32,7.0,7.0,65,0.00,,,0.00,weatherlink.com 1.10,2013-01-16 19:52:00,
2013-01-16 15:08:00,34.7,24.0,29.98,NE,54,1.0,8.0,66,0.00,,,0.00,weatherlink.com 1.10,2013-01-16 20:08:00,
2013-01-16 15:22:00,34.5,23.0,29.98,ENE,60,0.0,5.0,64,0.00,,,0.00,weatherlink.com 1.10,2013-01-16 20:22:00,
2013-01-16 15:37:00,34.4,24.0,29.97,ENE,68,4.0,7.0,65,0.00,,,0.00,weatherlink.com 1.10,2013-01-16 20:37:00,
2013-01-16 16:08:00,34.3,24.0,29.98,NNE,33,2.0,6.0,66,0.00,,,0.00,weatherlink.com 1.10,2013-01-16 21:08:00,
2013-01-16 16:22:00,34.0,23.0,29.99,ENE,77,2.0,7.0,64,0.00,,,0.00,weatherlink.com 1.10,2013-01-16 21:22:00,
2013-01-16 16:37:00,33.6,23.0,30.00,NNE,27,4.0,5.0,65,0.00,,,0.00,weatherlink.com 1.10,2013-01-16 21:37:00,
2013-01-16 17:07:00,32.8,23.0,30.00,ENE,77,0.0,4.0,67,0.00,,,0.00,weatherlink.com 1.10,2013-01-16 22:07:00,
2013-01-16 17:22:00,32.4,23.0,30.01,NE,39,4.0,6.0,68,0.00,,,0.00,weatherlink.com 1.10,2013-01-16 22:22:00,
2013-01-16 17:37:00,32.1,23.0,30.02,NE,39,3.0,4.0,70,0.00,,,0.00,weatherlink.com 1.10,2013-01-16 22:37:00,
2013-01-16 17:52:00,31.8,23.0,30.02,ENE,58,2.0,4.0,71,0.00,,,0.00,weatherlink.com 1.10,2013-01-16 22:52:00,
2013-01-16 18:07:00,31.5,23.0,30.03,ENE,58,0.0,4.0,71,0.00,,,0.00,weatherlink.com 1.10,2013-01-16 23:07:00,
2013-01-16 18:22:00,31.2,23.0,30.03,NE,56,2.0,4.0,72,0.00,,,0.00,weatherlink.com 1.10,2013-01-16 23:22:00,
2013-01-16 18:37:00,31.1,23.0,30.02,ENE,76,1.0,4.0,73,0.00,,,0.00,weatherlink.com 1.10,2013-01-16 23:37:00,
2013-01-16 18:52:00,30.9,24.0,30.03,ENE,68,0.0,5.0,74,0.00,,,0.00,weatherlink.com 1.10,2013-01-16 23:52:00,
2013-01-16 19:07:00,30.6,24.0,30.03,NE,52,1.0,5.0,76,0.00,,,0.00,weatherlink.com 1.10,2013-01-17 00:07:00,
2013-01-16 19:22:00,30.5,24.0,30.04,ENE,58,1.0,5.0,76,0.00,,,0.00,weatherlink.com 1.10,2013-01-17 00:22:00,
2013-01-16 19:37:00,30.4,24.0,30.05,ENE,64,0.0,4.0,77,0.00,,,0.00,weatherlink.com 1.10,2013-01-17 00:37:00,
2013-01-16 19:52:00,30.3,24.0,30.05,ENE,63,0.0,7.0,78,0.00,,,0.00,weatherlink.com 1.10,2013-01-17 00:52:00,
2013-01-16 20:07:00,30.6,25.0,30.06,NE,40,7.0,10.0,78,0.00,,,0.00,weatherlink.com 1.10,2013-01-17 01:07:00,
2013-01-16 20:22:00,30.5,24.0,30.06,ENE,63,1.0,9.0,78,0.00,,,0.00,weatherlink.com 1.10,2013-01-17 01:22:00,
2013-01-16 20:37:00,30.5,25.0,30.07,NNE,31,2.0,5.0,79,0.00,,,0.00,weatherlink.com 1.10,2013-01-17 01:37:00,
2013-01-16 20:52:00,30.7,25.0,30.07,East,81,0.0,6.0,78,0.00,,,0.00,weatherlink.com 1.10,2013-01-17 01:52:00,
2013-01-16 21:07:00,30.9,25.0,30.06,South,176,3.0,7.0,78,0.00,,,0.00,weatherlink.com 1.10,2013-01-17 02:07:00,
2013-01-16 21:23:00,30.9,25.0,30.07,NE,46,0.0,6.0,79,0.00,,,0.00,weatherlink.com 1.10,2013-01-17 02:23:00,
2013-01-16 21:37:00,31.0,25.0,30.07,ENE,68,0.0,6.0,79,0.00,,,0.00,weatherlink.com 1.10,2013-01-17 02:37:00,
2013-01-16 21:52:00,30.9,25.0,30.07,NE,53,2.0,4.0,80,0.00,,,0.00,weatherlink.com 1.10,2013-01-17 02:52:00,
2013-01-16 22:07:00,30.7,25.0,30.07,ENE,70,0.0,4.0,80,0.00,,,0.00,weatherlink.com 1.10,2013-01-17 03:07:00,
2013-01-16 22:22:00,30.6,25.0,30.08,NNE,23,4.0,4.0,81,0.00,,,0.00,weatherlink.com 1.10,2013-01-17 03:22:00,
2013-01-16 22:37:00,30.8,26.0,30.08,East,91,1.0,4.0,81,0.00,,,0.00,weatherlink.com 1.10,2013-01-17 03:37:00,
2013-01-16 22:52:00,30.8,26.0,30.09,East,88,2.0,3.0,81,0.00,,,0.00,weatherlink.com 1.10,2013-01-17 03:52:00,
2013-01-16 23:07:00,30.6,25.0,30.09,NE,39,3.0,7.0,81,0.00,,,0.00,weatherlink.com 1.10,2013-01-17 04:07:00,
2013-01-16 23:22:00,30.9,26.0,30.09,East,84,0.0,5.0,81,0.00,,,0.00,weatherlink.com 1.10,2013-01-17 04:22:00,
2013-01-16 23:37:00,30.8,26.0,30.09,East,86,0.0,4.0,81,0.00,,,0.00,weatherlink.com 1.10,2013-01-17 04:37:00,
2013-01-16 23:52:00,30.5,26.0,30.09,ENE,73,0.0,5.0,82,0.00,,,0.00,weatherlink.com 1.10,2013-01-17 04:52:00,